STARLINK-5256 (54175 NORAD) Tracking and Keplerian Element Data

This shows tracking and keplerian element data for the satellite.

Feedback or suggestion? Click here.




ElementValue
Catalog54175
NameSTARLINK-5256
Epoch Orbit384
Epoch Day325.25001157
Epoch Year2022
RAAN24.1148
Inclination53.219
Eccentricity0.000324
Argument of Perigee7.8059
Mean Anonmoly12.4764
Mean Motion15.73231478
Decay Rate-0.00061571
L11 54175U 22141U 22325.25001157 -.00061571 00000+0 -43674-3 0 9995
L22 54175 53.2190 24.1148 0003240 7.8059 12.4764 15.73231478 3842



Live tracking and technical data element details for STARLINK-5256 (NORAD 54175). STARLINK-5256 can be tracked NOW for your location showing map with azimuth and elevation plus other details from your city location.







IsCatalogInMostPopularTable: catalog: 54175, numindb: 8
Update: records affected: 1



GetName: 54175 STARLINK-5256

Hit Count: updated at: Sun, 04 Dec 2022 21:41:30 GMT